Погода в Камышине

Погода в Камышине : погода сейчас, прогноз погоды и архив. Всё, что Вы хотите узнать о погоде в Камышине!

Хотите узнать прогноз погоды в Камышине? Тогда Вам сюда: Погода в Камышине

Поиск расширенной информации на нашем сайте:

Другие новости

Новости СМИ2

Главная страница сайта

Новости сайта

03.07.2017

Напоминаем, что на нашем специализированном сайте Метеоцентр.Азия вы можете получить высокодетализированные автоматические прогнозы погоды по пунктам России, СНГ и мира в авиационном формате (включающие направление и скорость ветра, видимость, явления погоды, количество и форму облачности, нижнюю и верхнюю границу облачности).

Рекомендуем: Навгеотех - геодезическое оборудование: GPS приемники, тахеометры, нивелиры, теодолиты, рулетки..

Погода в Камышине - сегодня

Время (UTC), дата Ветер
(°,м/с) 
Видим.   Явления Облачность Т
(°С)
Тd
(°С)
f(%) Тe
(°С)
Pmin
(гПа)
dP
(гПа)
Po
(мм)
O2
(г/м3)
Тmin Tmax R s Состояние
почвы
21 15.04.18 300 (СЗ) 20000 м    ясно 
+6.5 -4.8 44 +5  1024.8  -0.4  757  299           
00 16.04.18 240 (ЮЗ) 20000 м    ясно 
+4.1 -5.3 50 +2  1023.9  -1  756  301           
06 16.04.18 310 (СЗ) 20000 м    ясно 
+11.7 -5.1 30 +11  1022.8  756  293           
09 16.04.18 280 (З) 20000 м    4/0 верхняя 
[Cc]
+15.8 -5.3 23 +16  1021.4  -1.2  755  288           
12 16.04.18 280 (З) 20000 м    3/1 1000 м верхняя 
[Cu hum|Ci sp]
+17.5 -5.1 21 +18  1019.7  -1.5  754  286           
18 16.04.18 050 (СВ) 10 км    ясно 
+11.7 -3.9 33 +13  1019.9  0.8  754  292           
00 17.04.18 тихо ()   20000 м    ясно 
+8.6 -4 41 +9  1019.4  -0.6  753  295           
06 17.04.18 310 (СЗ) 10 км    9/0 верхняя 
[Ci sp]
+15.5 -2.5 29 +16  1020.5  0.8  754  288           
09 17.04.18 130 (ЮВ) 10 км    9/0 верхняя 
[Cc]
+18.2 -2.8 24 +19  1019.8  -0.5  754  285           
12 17.04.18 150 (ЮВ) 10 км    9/0 средняя, верхняя 
[Ac cast|Ci sp]
+20 -2.6 22 +20  1018.9  -0.8  753  283           
18 17.04.18 тихо ()   10 км  слаб. ливневой дождь  9/3 1000 м кучево-дожд., средняя 
[Cb calv|Ac lent]
+15.1 +3.4 45 +15  1019.6  0.9  754  287           
21 17.04.18 220 (ЮЗ) 10 км  {ливн. осадки}  6/0 средняя, верхняя 
[Ac trans|Ci fib]
+11.2 +2.6 55 +10  1019.4  -0.4  753  291           
21 18.04.18 220 (ЮЗ) 10 км  в посл. час ливневой дождь  10/8 600 м кучево-дожд., средняя 
[Cb calv|Ac As]
+10.5 +8.3 86 +10  1010.8  -1.8  747  288           
06 19.04.18 160 (Ю) 10 км    4/0 средняя, верхняя 
[Ac trans|Ci fib]
+11 +7.2 77 +10  1005.4  -1.7  743  287           
09 19.04.18 170 (Ю) 7{13}  20000 м    4/3 1000 м верхняя 
[Cu med, cong|Ci fib]
+13.9 +4.5 53 +13  1003  -2.3  741  284           
18 19.04.18 180 (Ю) 20000 м    6/0 средняя 
[Ac trans]
+9.2 +4.2 71 +9  1000  -0.5  739  287           
21 19.04.18 200 (Ю) 20000 м  {ливн. осадки}  6/0 средняя 
[Ac trans]
+7.9 +5 82 +7  998.9  -1.1  738  288           
06 20.04.18 050 (СВ) 0500 м  туман{ливн. осадки}  ?/?  
+7.1 +6.2 94 +7  998.4  0.6  738  289           
09 20.04.18 070 (В) 10 км  {туман}  10/10 600 м 
[Sc]
+10.4 +6.6 77 +11  999.4  1.2  739  286           
21 20.04.18 020 (С) 6{12}  20000 м    10/10 600 м 
[Sc]
+7.5 +3.6 76 +5  1007.4  744  291           
06 21.04.18 010 (С) 20000 м    6/0 верхняя 
[Ci sp]
+8.5 -2.6 45 +7  1011.2  747  292           
09 21.04.18 320 (СЗ) 5{10}  20000 м    3/3 1000 м верхняя 
[Cu hum|Ci fib]
+12.3 -4.4 31 +11  1010.1  -0.9  747  288           
12 21.04.18 300 (СЗ) 20000 м    3/3 1000 м 
[Cu hum]
+13.9 -2.9 31 +13  1008.1  -1.9  745  286           
18 21.04.18 200 (Ю) 20000 м    3/0 средняя 
[Ac lent]
+9.5 +0.5 53 +9  1005.4  -1.4  743  289           
21 21.04.18 210 (ЮЗ) 20000 м    8/0 средняя, верхняя 
[Ac trans|Ci fib]
+9.5 +1.6 58 +8  1002.6  -2.8  741  288           
Время (UTC), дата Ветер
(°,м/с) 
Видим.   Явления Облачность Т
(°С)
Тd
(°С)
f(%) Тe
(°С)
Pmin
(гПа)
dP
(гПа)
Po
(мм)
O2
(г/м3)
Тmin Tmax R s Состояние
почвы

Для получения пояснительной информации подведите курсор к названию столбца.

ПОГОДА в Камышине - архив

Всё, что Вы хотите узнать о погоде в Камышине - удобно и подробно!

Выберите нужную дату (начиная с 1 января 2015* года) и нажмите кнопку "Найти".
Будут отображены архивные сводки погоды по пункту Камышин, начиная с указанной даты.


Отображать данные в формате CSV (для использования в таблицах Excel)


Внимание! Наш архив погоды предназначен исключительно для личного некоммерческого использования в познавательных целях. Если Вам необходимы официальные справки о состоянии погоды (для производственных, юридических, коммерческих и т.п. целей), обращайтесь в органы Росгидромета.

*Примечание: данная дата относится к архиву по метеостанциям СССР (Россия, СНГ, Балтия).
Архив по метеостанциям Зарубежной Европы и Азии (кроме Китая) хранится 10 дней, по другим регионам земного шара (Китай, Африка, Америка, Австралия, Океания) - 1 день.

Камышин - район местоположения метеостанции


Название, широта, долгота, высота метеостанции:
Камышин 50.1°ш. 45.4°д. 119 м над ур. моря [Российская Федерация]

Дополнительная информация

В oтличие oт бoльшинства пoгoдных сайтoв мы публикуем пoдрoбную метеoинфoрмацию в детальнoм прoфессиoнальнoм фoрмате.

Характеристики температуры и влажнoсти вoздуха измеряются на высoте 2 м в тени вдали oт зданий и деревьев.
Скoрoсть ветра измеряется на высoте 10 м (на урoвне рoста челoвека скoрoсть ветра ниже в 1.5-2 раза). Если метеoстанция нахoдится в гoрoде или в лесу, тo скoрoсть ветра занижена на 2-4 м/с пo сравнению с oткрытым местoм. Скoрoсть ветра над акватoриями крупных рек и oзёр, а также на вершинах хoлмoв на 2-5 м/с выше, чем в oбычных услoвиях.
Атмoсфернoе давление в разных тoчках местнoсти мoжет значительнo oтличаться oт давления на метеoстанции, в зависимoсти oт услoвий рельефа (при пoдъёме на 10 м давление пoнижается примернo на 1 мм рт.ст.).